Location: Chamerau
(49.1969°N, 12.7525°E)
Time: 15:03:22
(UTC+00:00)

Cosmos 2279 Rocket - Pass Details

Date: 18 September 2020
Orbit: 964 x 979 km, 82.9° (Epoch: 23 October)

Event Time Altitude Azimuth Distance (km) Brightness Sun altitude
Exits shadow 20:20:49 81° 129° (SE) 996 3.8 -28.5°
Maximum altitude 20:21:00 83° 97° (E) 993 3.8 -28.6°
Drops below altitude 10° 20:27:18 10° 11° (N) 2,743 6.7 -29.3°
Sets 20:29:50 0° 11° (N) 3,695 7.5 -29.6°
